{"data":{"norad_id":60430,"intl_designator":"2024-144F","name":"STARLINK-32196","alt_names":[],"object_type":"PAYLOAD","status":"ACTIVE","operator":null,"country":"US","launch_date":"2024-08-12","launch_site_code":"AFETR","launch_vehicle":null,"mission":null,"orbit_class":"UNKNOWN","rcs_meters":null,"size_class":null,"mass_kg":null,"dimensions":null,"purposes":["comms"],"wikipedia_slug":null,"has_3d_model":false,"image_url":null,"decayed_at":null,"tle_current":{"epoch":"2026-09-21T20:21:04.902624Z","epoch_age_seconds":69167,"freshness":"FRESH","line1":"1 60430U 24144F   26264.84797341  .00000178  00000+0  16394-4 0  9993","line2":"2 60430  53.1600  21.6203 0000983  76.5981 283.5131 15.34394683119404","mean_motion":15.34394683,"eccentricity":9.83e-5,"inclination_deg":53.16,"raan_deg":21.6203,"arg_perigee_deg":76.5981,"mean_anomaly_deg":283.5131,"bstar":1.6394e-5,"rev_number":11940,"period_min":93.848083283537,"perigee_km":462.04658734817,"apogee_km":463.39149964632,"semimajor_km":6840.8560434972,"source":"CELESTRAK","updated_at":"2026-09-22T09:00:49.234336Z"}}}